When you browse on this site, cookies collect data to enhance your experience and personalize the content and advertising you see.
Visit our Privacy Policy to learn more. By continuing to use the site, you agree to this use of cookies and data.
  • en Suisse
  • Liste des pays
  • À 7 jours
  • Température de l'eau
  • Carte météo
  • Widgets météo
  • user-avatar
    Se connecter

    Météo par heure à Puzovo

    Ce jour, 23 Août, Vendredi

    Heure Température Précipitation Vent Pression Humidité
    00:00 +13°C° 0 mm 2 m/s 754 mmHg 85%
    01:00 +12°C° 0 mm 2 m/s 754 mmHg 87%
    02:00 +12°C° 0 mm 1 m/s 754 mmHg 88%
    03:00 +12°C° 0 mm 1 m/s 754 mmHg 89%
    04:00 +11°C° 0 mm 1 m/s 754 mmHg 90%
    05:00 +10°C° 0 mm 0 m/s 754 mmHg 90%
    06:00 +12°C° 0 mm 0 m/s 755 mmHg 85%
    07:00 +15°C° 0 mm 1 m/s 755 mmHg 79%
    08:00 +18°C° 0 mm 1 m/s 755 mmHg 74%
    09:00 +19°C° 0 mm 1 m/s 755 mmHg 68%
    10:00 +20°C° 0 mm 1 m/s 755 mmHg 63%
    11:00 +22°C° 0 mm 1 m/s 755 mmHg 57%
    12:00 +22°C° 0 mm 1 m/s 755 mmHg 55%
    13:00 +23°C° 0 mm 1 m/s 755 mmHg 53%
    14:00 +23°C° 0 mm 1 m/s 754 mmHg 51%
    15:00 +23°C° 0 mm 1 m/s 754 mmHg 56%
    16:00 +23°C° 0 mm 1 m/s 754 mmHg 60%
    17:00 +22°C° 0 mm 1 m/s 754 mmHg 65%
    18:00 +20°C° 0 mm 1 m/s 754 mmHg 71%
    19:00 +18°C° 0 mm 1 m/s 753 mmHg 77%
    20:00 +15°C° 0 mm 1 m/s 753 mmHg 83%
    21:00 +14°C° 0 mm 1 m/s 753 mmHg 85%
    22:00 +14°C° 0 mm 1 m/s 753 mmHg 86%
    23:00 +13°C° 0 mm 1 m/s 753 mmHg 87%

    Demain, 24 Août, Samedi

    Heure Température Précipitation Vent Pression Humidité
    00:00 +13°C° 0 mm 1 m/s 753 mmHg 88%
    01:00 +13°C° 0 mm 1 m/s 753 mmHg 89%
    02:00 +12°C° 0 mm 1 m/s 753 mmHg 89%
    03:00 +12°C° 0 mm 1 m/s 753 mmHg 90%
    04:00 +12°C° 0 mm 1 m/s 753 mmHg 91%
    05:00 +12°C° 0 mm 1 m/s 753 mmHg 92%
    06:00 +14°C° 0 mm 1 m/s 753 mmHg 86%
    07:00 +15°C° 0 mm 2 m/s 753 mmHg 81%
    08:00 +17°C° 0 mm 2 m/s 753 mmHg 76%
    09:00 +19°C° 0 mm 2 m/s 753 mmHg 72%
    10:00 +20°C° 0 mm 3 m/s 752 mmHg 67%
    11:00 +21°C° 0 mm 3 m/s 752 mmHg 63%
    12:00 +22°C° 0 mm 3 m/s 752 mmHg 62%
    13:00 +22°C° 0 mm 3 m/s 752 mmHg 61%
    14:00 +23°C° 0 mm 4 m/s 752 mmHg 60%
    15:00 +22°C° 0 mm 3 m/s 751 mmHg 64%
    16:00 +22°C° 0 mm 3 m/s 751 mmHg 68%
    17:00 +23°C° 0 mm 2 m/s 751 mmHg 72%
    18:00 +20°C° 0 mm 2 m/s 751 mmHg 78%
    19:00 +18°C° 0 mm 2 m/s 751 mmHg 83%
    20:00 +17°C° 0 mm 2 m/s 751 mmHg 89%
    21:00 +16°C° 0 mm 2 m/s 751 mmHg 91%
    22:00 +16°C° 0 mm 2 m/s 751 mmHg 92%
    23:00 +15°C° 0 mm 2 m/s 751 mmHg 94%

    Après-demain, 25 Août, Dimanche

    Heure Température Précipitation Vent Pression Humidité
    00:00 +15°C° 0 mm 2 m/s 751 mmHg 95%
    01:00 +15°C° 0 mm 2 m/s 751 mmHg 96%
    02:00 +14°C° 0 mm 2 m/s 751 mmHg 96%
    03:00 +14°C° 0 mm 2 m/s 751 mmHg 96%
    04:00 +14°C° 0 mm 2 m/s 751 mmHg 96%
    05:00 +13°C° 0 mm 2 m/s 752 mmHg 96%
    06:00 +15°C° 0 mm 2 m/s 752 mmHg 90%
    07:00 +16°C° 0 mm 2 m/s 752 mmHg 85%
    08:00 +18°C° 0 mm 2 m/s 752 mmHg 79%
    09:00 +19°C° 0 mm 2 m/s 752 mmHg 72%
    10:00 +20°C° 0 mm 2 m/s 753 mmHg 66%
    11:00 +23°C° 0 mm 2 m/s 753 mmHg 59%
    12:00 +23°C° 0 mm 2 m/s 753 mmHg 57%
    13:00 +23°C° 0 mm 2 m/s 753 mmHg 56%
    14:00 +24°C° 0 mm 1 m/s 753 mmHg 54%
    15:00 +23°C° 0 mm 1 m/s 753 mmHg 59%
    16:00 +23°C° 0 mm 1 m/s 753 mmHg 63%
    17:00 +23°C° 0 mm 1 m/s 753 mmHg 67%
    18:00 +21°C° 0 mm 1 m/s 753 mmHg 71%
    19:00 +18°C° 0 mm 1 m/s 753 mmHg 75%
    20:00 +15°C° 0 mm 1 m/s 753 mmHg 79%
    21:00 +15°C° 0 mm 1 m/s 753 mmHg 81%
    22:00 +14°C° 0 mm 1 m/s 753 mmHg 83%
    23:00 +13°C° 0 mm 1 m/s 753 mmHg 85%

    26 Août, Lundi

    Heure Température Précipitation Vent Pression Humidité
    00:00 +13°C° 0 mm 1 m/s 753 mmHg 86%
    01:00 +13°C° 0 mm 1 m/s 753 mmHg 87%
    02:00 +12°C° 0 mm 1 m/s 753 mmHg 89%
    03:00 +12°C° 0 mm 1 m/s 753 mmHg 89%
    04:00 +12°C° 0 mm 1 m/s 753 mmHg 90%
    05:00 +12°C° 0 mm 1 m/s 753 mmHg 90%
    06:00 +14°C° 0 mm 1 m/s 753 mmHg 84%
    07:00 +16°C° 0 mm 1 m/s 754 mmHg 78%
    08:00 +19°C° 0 mm 1 m/s 754 mmHg 71%
    09:00 +20°C° 0 mm 1 m/s 754 mmHg 68%
    10:00 +21°C° 0 mm 1 m/s 754 mmHg 65%
    11:00 +23°C° 0 mm 1 m/s 754 mmHg 61%
    12:00 +23°C° 0.1 mm 1 m/s 753 mmHg 61%
    13:00 +23°C° 0.1 mm 1 m/s 753 mmHg 61%
    14:00 +23°C° 0.1 mm 2 m/s 753 mmHg 61%
    15:00 +23°C° 0 mm 1 m/s 753 mmHg 65%
    16:00 +23°C° 0 mm 1 m/s 752 mmHg 69%
    17:00 +23°C° 0 mm 1 m/s 752 mmHg 72%
    18:00 +21°C° 0 mm 1 m/s 752 mmHg 76%
    19:00 +19°C° 0 mm 1 m/s 752 mmHg 81%
    20:00 +18°C° 0 mm 1 m/s 751 mmHg 85%
    21:00 +16°C° 0 mm 1 m/s 752 mmHg 86%
    22:00 +16°C° 0 mm 1 m/s 752 mmHg 88%
    23:00 +15°C° 0 mm 1 m/s 752 mmHg 90%

    27 Août, Mardi

    Heure Température Précipitation Vent Pression Humidité
    00:00 +15°C° 0 mm 1 m/s 751 mmHg 91%
    01:00 +15°C° 0 mm 1 m/s 751 mmHg 91%
    02:00 +14°C° 0 mm 1 m/s 751 mmHg 92%
    03:00 +14°C° 0 mm 2 m/s 751 mmHg 92%
    04:00 +14°C° 0 mm 2 m/s 751 mmHg 92%
    05:00 +14°C° 0 mm 2 m/s 751 mmHg 93%
    06:00 +15°C° 0 mm 2 m/s 751 mmHg 89%
    07:00 +17°C° 0 mm 2 m/s 751 mmHg 85%
    08:00 +18°C° 0 mm 2 m/s 751 mmHg 82%
    09:00 +20°C° 0 mm 2 m/s 751 mmHg 77%
    10:00 +21°C° 0 mm 3 m/s 750 mmHg 72%
    11:00 +24°C° 0 mm 3 m/s 750 mmHg 67%
    12:00 +24°C° 0 mm 3 m/s 750 mmHg 66%
    13:00 +25°C° 0 mm 3 m/s 750 mmHg 64%
    14:00 +25°C° 0 mm 3 m/s 750 mmHg 62%
    15:00 +25°C° 0 mm 3 m/s 750 mmHg 66%
    16:00 +24°C° 0 mm 3 m/s 750 mmHg 69%
    17:00 +24°C° 0 mm 2 m/s 750 mmHg 73%
    18:00 +21°C° 0 mm 2 m/s 750 mmHg 77%
    19:00 +19°C° 0 mm 2 m/s 750 mmHg 81%
    20:00 +18°C° 0 mm 2 m/s 750 mmHg 86%
    21:00 +17°C° 0 mm 2 m/s 750 mmHg 88%
    22:00 +16°C° 0 mm 2 m/s 750 mmHg 91%
    23:00 +16°C° 0 mm 2 m/s 750 mmHg 93%

    28 Août, Mercredi

    Heure Température Précipitation Vent Pression Humidité
    00:00 +15°C° 0 mm 1 m/s 750 mmHg 93%
    01:00 +15°C° 0 mm 1 m/s 750 mmHg 93%
    02:00 +14°C° 0 mm 1 m/s 750 mmHg 93%
    03:00 +14°C° 0 mm 1 m/s 751 mmHg 93%
    04:00 +13°C° 0 mm 1 m/s 751 mmHg 92%
    05:00 +13°C° 0 mm 1 m/s 751 mmHg 92%
    06:00 +14°C° 0 mm 1 m/s 751 mmHg 86%
    07:00 +16°C° 0 mm 1 m/s 751 mmHg 80%
    08:00 +17°C° 0 mm 2 m/s 751 mmHg 74%
    09:00 +19°C° 0 mm 2 m/s 751 mmHg 68%
    10:00 +20°C° 0 mm 2 m/s 751 mmHg 62%
    11:00 +21°C° 0 mm 2 m/s 751 mmHg 56%
    12:00 +23°C° 0 mm 2 m/s 751 mmHg 54%
    13:00 +23°C° 0 mm 2 m/s 751 mmHg 52%
    14:00 +23°C° 0 mm 2 m/s 751 mmHg 50%
    15:00 +23°C° 0 mm 1 m/s 751 mmHg 55%
    16:00 +23°C° 0 mm 1 m/s 751 mmHg 60%
    17:00 +22°C° 0 mm 1 m/s 751 mmHg 65%
    18:00 +19°C° 0 mm 2 m/s 751 mmHg 71%
    19:00 +17°C° 0 mm 2 m/s 751 mmHg 78%
    20:00 +15°C° 0 mm 2 m/s 751 mmHg 84%
    21:00 +15°C° 0 mm 2 m/s 751 mmHg 84%
    22:00 +14°C° 0 mm 2 m/s 752 mmHg 84%
    23:00 +13°C° 0 mm 2 m/s 752 mmHg 84%
    Voir plus